Terminal Aerodrome Forecast
Issued by NWS

Home | Current Version | Previous Version | Text Only | Print | Product List | Glossary On
Versions: 1 2 3 4 5 6 7 8 9 10 11 12 13 14 15 16 17 18 19 20
000
FTUS45 KMSO 191140
TAFSMN
TAF
KSMN 191140Z 1912/2012 00000KT P6SM OVC080
     FM200000 VRB03KT P6SM VCSH OVC040
     FM200200 VRB03KT 4SM -SN BR OVC030
     FM200500 00000KT P6SM OVC050
      AMD LTD TO CLD VIS AND WIND=

USA.gov is the U.S. government's official web portal to all federal, state and local government web resources and services.